| time (UTC) | temp C | wind direction | speed KPH | gust KPH | rain 1hr cm | rain 24hr cm | rain mn cm | humidity % | barometer mb |
| 20260507011204 | 13 | 220 | 4.8 | 24.1 | 0.00 | 0.36 | 0.36 | 99 | 1004.0 |
| 20260507010704 | 13 | 220 | 8.0 | 19.3 | 0.00 | 0.36 | 0.36 | 99 | 1004.2 |
| 20260507010203 | 13 | 220 | 6.4 | 19.3 | 0.00 | 0.36 | 0.36 | 99 | 1004.2 |
| 20260507005204 | 13 | 220 | 4.8 | 16.1 | 0.00 | 0.36 | 0.36 | 99 | 1004.3 |
| 20260507004704 | 13 | 220 | 8.0 | 22.5 | 0.00 | 0.36 | 0.36 | 99 | 1004.3 |
| 20260507004203 | 13 | 220 | 9.7 | 20.9 | 0.00 | 0.36 | 0.36 | 99 | 1004.2 |
| 20260507003703 | 13 | 220 | 8.0 | 16.1 | 0.00 | 0.36 | 0.36 | 99 | 1004.2 |
| 20260507003204 | 13 | 220 | 11.3 | 22.5 | 0.00 | 0.36 | 0.36 | 99 | 1004.1 |
| 20260507002704 | 13 | 220 | 4.8 | 16.1 | 0.00 | 0.36 | 0.36 | 99 | 1004.2 |
| 20260507002204 | 13 | 220 | 9.7 | 24.1 | 0.00 | 0.36 | 0.36 | 99 | 1004.2 |
| 20260507001703 | 13 | 220 | 9.7 | 24.1 | 0.00 | 0.36 | 0.36 | 99 | 1004.1 |
| 20260507001203 | 13 | 220 | 6.4 | 16.1 | 0.00 | 0.36 | 0.36 | 99 | 1004.1 |
| 20260507000704 | 13 | 220 | 6.4 | 12.9 | 0.00 | 0.36 | 0.36 | 99 | 1004.2 |
| 20260506235703 | 13 | 210 | 4.8 | 19.3 | 0.03 | 0.36 | 0.36 | 99 | 1004.0 |
| 20260506235203 | 13 | 210 | 4.8 | 16.1 | 0.03 | 0.36 | 0.36 | 99 | 1003.8 |
| 20260506234204 | 13 | 210 | 9.7 | 25.7 | 0.03 | 0.36 | 0.36 | 99 | 1003.8 |
| 20260506233204 | 13 | 210 | 4.8 | 14.5 | 0.08 | 0.36 | 0.36 | 98 | 1003.7 |
| 20260506232704 | 13 | 210 | 9.7 | 19.3 | 0.10 | 0.36 | 0.36 | 98 | 1003.8 |
| 20260506232203 | 13 | 210 | 9.7 | 22.5 | 0.10 | 0.36 | 0.36 | 98 | 1003.7 |
| 20260506231204 | 13 | 210 | 9.7 | 24.1 | 0.10 | 0.36 | 0.36 | 99 | 1003.7 |
| 20260506230204 | 14 | 210 | 4.8 | 19.3 | 0.13 | 0.36 | 0.36 | 98 | 1003.6 |
| 20260506225703 | 14 | 200 | 9.7 | 19.3 | 0.10 | 0.33 | 0.33 | 98 | 1003.6 |
| 20260506225204 | 14 | 200 | 4.8 | 12.9 | 0.10 | 0.33 | 0.33 | 98 | 1003.7 |
| 20260506224704 | 14 | 200 | 8.0 | 19.3 | 0.10 | 0.33 | 0.33 | 98 | 1003.7 |
| 20260506224203 | 14 | 200 | 4.8 | 16.1 | 0.10 | 0.33 | 0.33 | 98 | 1003.7 |
| 20260506223704 | 14 | 200 | 8.0 | 14.5 | 0.08 | 0.30 | 0.30 | 98 | 1003.7 |
| 20260506223203 | 14 | 200 | 4.8 | 16.1 | 0.05 | 0.28 | 0.28 | 98 | 1003.7 |
| 20260506222704 | 14 | 200 | 8.0 | 20.9 | 0.03 | 0.25 | 0.25 | 98 | 1003.7 |
| 20260506221704 | 14 | 200 | 9.7 | 19.3 | 0.05 | 0.25 | 0.25 | 98 | 1003.9 |
| 20260506220203 | 14 | 200 | 6.4 | 12.9 | 0.05 | 0.23 | 0.23 | 98 | 1003.9 |
| 20260506215704 | 14 | 200 | 6.4 | 22.5 | 0.05 | 0.23 | 0.23 | 97 | 1004.1 |
| 20260506215203 | 14 | 200 | 6.4 | 19.3 | 0.05 | 0.23 | 0.23 | 97 | 1004.1 |
| 20260506214703 | 14 | 200 | 8.0 | 22.5 | 0.05 | 0.23 | 0.23 | 97 | 1004.0 |
| 20260506213704 | 14 | 200 | 8.0 | 19.3 | 0.05 | 0.23 | 0.23 | 97 | 1004.0 |
| 20260506213203 | 14 | 200 | 9.7 | 20.9 | 0.05 | 0.23 | 0.23 | 97 | 1004.0 |
| 20260506212704 | 14 | 200 | 9.7 | 19.3 | 0.05 | 0.23 | 0.23 | 97 | 1004.2 |
| 20260506211704 | 14 | 200 | 8.0 | 20.9 | 0.03 | 0.20 | 0.20 | 97 | 1004.4 |
| 20260506210704 | 15 | 200 | 4.8 | 14.5 | 0.00 | 0.18 | 0.18 | 97 | 1004.4 |
| 20260506210204 | 14 | 200 | 8.0 | 19.3 | 0.00 | 0.18 | 0.18 | 97 | 1004.3 |
| 20260506204703 | 14 | 200 | 8.0 | 20.9 | 0.00 | 0.18 | 0.18 | 96 | 1004.6 |
| 20260506204204 | 14 | 200 | 9.7 | 22.5 | 0.00 | 0.18 | 0.18 | 96 | 1004.6 |
| 20260506203703 | 14 | 200 | 9.7 | 20.9 | 0.00 | 0.18 | 0.18 | 96 | 1004.6 |
| 20260506203204 | 14 | 200 | 8.0 | 19.3 | 0.00 | 0.18 | 0.18 | 96 | 1004.6 |
| 20260506202703 | 14 | 200 | 8.0 | 24.1 | 0.00 | 0.18 | 0.18 | 96 | 1004.5 |
| 20260506202204 | 14 | 200 | 11.3 | 22.5 | 0.03 | 0.18 | 0.18 | 95 | 1004.6 |
| 20260506201704 | 14 | 200 | 11.3 | 20.9 | 0.03 | 0.18 | 0.18 | 95 | 1004.6 |
| 20260506201204 | 15 | 200 | 9.7 | 20.9 | 0.03 | 0.18 | 0.18 | 95 | 1004.6 |
| 20260506200703 | 14 | 200 | 11.3 | 29.0 | 0.05 | 0.18 | 0.18 | 95 | 1004.6 |
| 20260506200204 | 14 | 200 | 11.3 | 20.9 | 0.05 | 0.18 | 0.18 | 95 | 1004.7 |
| 20260506195703 | 15 | 190 | 9.7 | 19.3 | 0.08 | 0.18 | 0.18 | 95 | 1004.8 |
| 20260506195204 | 15 | 190 | 9.7 | 19.3 | 0.08 | 0.18 | 0.18 | 95 | 1004.8 |
| 20260506193704 | 15 | 190 | 8.0 | 24.1 | 0.13 | 0.18 | 0.18 | 94 | 1004.8 |
| 20260506193203 | 15 | 190 | 9.7 | 20.9 | 0.13 | 0.18 | 0.18 | 94 | 1004.9 |
| 20260506192704 | 15 | 190 | 9.7 | 22.5 | 0.15 | 0.18 | 0.18 | 94 | 1005.0 |
| 20260506192204 | 15 | 190 | 9.7 | 19.3 | 0.13 | 0.15 | 0.15 | 95 | 1005.1 |
| 20260506191704 | 15 | 190 | 6.4 | 19.3 | 0.15 | 0.15 | 0.15 | 94 | 1005.0 |
| 20260506191204 | 15 | 190 | 8.0 | 14.5 | 0.15 | 0.15 | 0.15 | 94 | 1004.9 |
| 20260506190204 | 15 | 190 | 11.3 | 25.7 | 0.13 | 0.13 | 0.13 | 92 | 1004.9 |
| 20260506185703 | 15 | 210 | 4.8 | 19.3 | 0.10 | 0.10 | 0.10 | 92 | 1005.0 |
| 20260506185204 | 16 | 210 | 9.7 | 20.9 | 0.10 | 0.10 | 0.10 | 91 | 1005.0 |
| 20260506184703 | 16 | 210 | 6.4 | 20.9 | 0.08 | 0.08 | 0.08 | 90 | 1004.9 |
| 20260506184204 | 16 | 210 | 8.0 | 25.7 | 0.08 | 0.08 | 0.08 | 89 | 1005.0 |
| 20260506183704 | 16 | 210 | 6.4 | 25.7 | 0.05 | 0.05 | 0.05 | 89 | 1005.0 |
| 20260506183204 | 16 | 210 | 6.4 | 16.1 | 0.05 | 0.05 | 0.05 | 88 | 1005.1 |
| 20260506182204 | 17 | 210 | 8.0 | 19.3 | 0.03 | 0.03 | 0.03 | 86 | 1005.3 |
| 20260506181704 | 17 | 210 | 6.4 | 20.9 | 0.00 | 0.00 | 0.00 | 85 | 1005.5 |
| 20260506181203 | 17 | 210 | 11.3 | 25.7 | 0.00 | 0.00 | 0.00 | 84 | 1005.4 |
| 20260506180703 | 17 | 210 | 9.7 | 22.5 | 0.00 | 0.00 | 0.00 | 83 | 1005.6 |
| 20260506175704 | 18 | 210 | 11.3 | 22.5 | 0.00 | 0.00 | 0.00 | 80 | 1005.5 |
| 20260506175203 | 18 | 210 | 8.0 | 20.9 | 0.00 | 0.00 | 0.00 | 79 | 1005.4 |
| 20260506174704 | 18 | 210 | 11.3 | 29.0 | 0.00 | 0.00 | 0.00 | 77 | 1005.5 |
| 20260506173704 | 19 | 210 | 20.9 | 45.1 | 0.00 | 0.00 | 0.00 | 73 | 1005.6 |
| 20260506172704 | 20 | 210 | 12.9 | 33.8 | 0.00 | 0.00 | 0.00 | 69 | 1005.4 |
| 20260506172204 | 20 | 210 | 16.1 | 27.4 | 0.00 | 0.00 | 0.00 | 68 | 1005.5 |
| 20260506171203 | 20 | 210 | 12.9 | 32.2 | 0.00 | 0.00 | 0.00 | 66 | 1005.4 |
| 20260506170704 | 20 | 210 | 16.1 | 35.4 | 0.00 | 0.00 | 0.00 | 67 | 1005.4 |
| 20260506165704 | 20 | 200 | 8.0 | 22.5 | 0.00 | 0.00 | 0.00 | 67 | 1005.4 |
| 20260506165204 | 20 | 200 | 14.5 | 35.4 | 0.00 | 0.00 | 0.00 | 65 | 1005.4 |
| 20260506164704 | 21 | 200 | 12.9 | 29.0 | 0.00 | 0.00 | 0.00 | 65 | 1005.5 |
| 20260506164204 | 21 | 200 | 11.3 | 29.0 | 0.00 | 0.00 | 0.00 | 66 | 1005.7 |
| 20260506163704 | 21 | 200 | 8.0 | 22.5 | 0.00 | 0.00 | 0.00 | 67 | 1005.7 |
| 20260506163204 | 20 | 200 | 11.3 | 27.4 | 0.00 | 0.00 | 0.00 | 67 | 1005.7 |
| 20260506162204 | 20 | 200 | 11.3 | 24.1 | 0.00 | 0.00 | 0.00 | 66 | 1005.8 |
| 20260506161703 | 21 | 200 | 16.1 | 32.2 | 0.00 | 0.00 | 0.00 | 65 | 1005.9 |
| 20260506161204 | 20 | 200 | 16.1 | 48.3 | 0.00 | 0.00 | 0.00 | 65 | 1005.9 |
| 20260506160204 | 20 | 200 | 17.7 | 40.2 | 0.00 | 0.00 | 0.00 | 65 | 1006.0 |
| 20260506155704 | 20 | 210 | 16.1 | 35.4 | 0.00 | 0.00 | 0.00 | 67 | 1006.1 |
| 20260506155203 | 20 | 210 | 9.7 | 32.2 | 0.00 | 0.00 | 0.00 | 67 | 1006.1 |
| 20260506154703 | 20 | 210 | 14.5 | 33.8 | 0.00 | 0.00 | 0.00 | 68 | 1006.1 |
| 20260506154204 | 20 | 210 | 11.3 | 32.2 | 0.00 | 0.00 | 0.00 | 68 | 1006.1 |
| 20260506153703 | 20 | 210 | 12.9 | 32.2 | 0.00 | 0.00 | 0.00 | 69 | 1006.2 |
| 20260506152703 | 20 | 210 | 11.3 | 24.1 | 0.00 | 0.00 | 0.00 | 70 | 1006.3 |
| 20260506151704 | 20 | 210 | 11.3 | 32.2 | 0.00 | 0.00 | 0.00 | 69 | 1006.5 |
| 20260506151204 | 20 | 210 | 6.4 | 16.1 | 0.00 | 0.00 | 0.00 | 70 | 1006.5 |
| 20260506150703 | 20 | 210 | 9.7 | 24.1 | 0.00 | 0.00 | 0.00 | 70 | 1006.6 |
| 20260506150204 | 20 | 210 | 11.3 | 24.1 | 0.00 | 0.00 | 0.00 | 70 | 1006.8 |
| 20260506145703 | 20 | 180 | 11.3 | 24.1 | 0.00 | 0.00 | 0.00 | 71 | 1006.7 |
| 20260506144704 | 20 | 180 | 9.7 | 22.5 | 0.00 | 0.00 | 0.00 | 73 | 1006.9 |
| 20260506144203 | 19 | 180 | 16.1 | 27.4 | 0.00 | 0.00 | 0.00 | 73 | 1006.8 |
| 20260506142704 | 18 | 180 | 9.7 | 25.7 | 0.00 | 0.00 | 0.00 | 76 | 1006.8 |
| 20260506142204 | 18 | 180 | 9.7 | 25.7 | 0.00 | 0.00 | 0.00 | 76 | 1006.8 |
| 20260506141704 | 18 | 180 | 9.7 | 19.3 | 0.00 | 0.00 | 0.00 | 77 | 1006.8 |
| 20260506141203 | 18 | 180 | 14.5 | 22.5 | 0.00 | 0.00 | 0.00 | 76 | 1006.9 |
| 20260506140704 | 18 | 180 | 8.0 | 22.5 | 0.00 | 0.00 | 0.00 | 77 | 1006.7 |
| 20260506140203 | 18 | 180 | 16.1 | 32.2 | 0.00 | 0.00 | 0.00 | 77 | 1006.7 |
| 20260506135704 | 18 | 200 | 8.0 | 19.3 | 0.00 | 0.00 | 0.00 | 79 | 1006.7 |
| 20260506135203 | 18 | 200 | 11.3 | 19.3 | 0.00 | 0.00 | 0.00 | 80 | 1006.7 |
| 20260506134204 | 17 | 200 | 9.7 | 29.0 | 0.00 | 0.00 | 0.00 | 80 | 1006.9 |
| 20260506133204 | 17 | 200 | 6.4 | 19.3 | 0.00 | 0.00 | 0.00 | 82 | 1006.9 |
| 20260506132703 | 17 | 200 | 11.3 | 19.3 | 0.00 | 0.00 | 0.00 | 82 | 1006.8 |
| 20260506132204 | 17 | 200 | 11.3 | 24.1 | 0.00 | 0.00 | 0.00 | 83 | 1007.0 |
| 20260506131703 | 16 | 200 | 6.4 | 19.3 | 0.00 | 0.00 | 0.00 | 83 | 1007.4 |
| 20260506131204 | 16 | 200 | 8.0 | 24.1 | 0.00 | 0.00 | 0.00 | 85 | 1007.6 |
| 20260506130204 | 16 | 200 | 8.0 | 22.5 | 0.00 | 0.00 | 0.00 | 86 | 1007.6 |
| 20260506125203 | 16 | 210 | 9.7 | 25.7 | 0.00 | 0.00 | 0.00 | 85 | 1007.6 |
| 20260506124703 | 16 | 210 | 8.0 | 27.4 | 0.00 | 0.00 | 0.00 | 85 | 1007.5 |
| 20260506124204 | 16 | 210 | 14.5 | 25.7 | 0.00 | 0.00 | 0.00 | 85 | 1007.5 |
| 20260506123704 | 16 | 210 | 8.0 | 19.3 | 0.00 | 0.00 | 0.00 | 85 | 1007.4 |
| 20260506123204 | 16 | 210 | 8.0 | 19.3 | 0.00 | 0.00 | 0.00 | 87 | 1007.5 |
| 20260506122704 | 15 | 210 | 9.7 | 20.9 | 0.00 | 0.00 | 0.00 | 88 | 1007.6 |
| 20260506121703 | 15 | 210 | 11.3 | 22.5 | 0.00 | 0.00 | 0.00 | 87 | 1007.5 |
| 20260506121204 | 15 | 210 | 8.0 | 22.5 | 0.00 | 0.00 | 0.00 | 87 | 1007.8 |
| 20260506115703 | 15 | 220 | 14.5 | 27.4 | 0.00 | 0.00 | 0.00 | 88 | 1007.5 |
| 20260506115204 | 15 | 220 | 9.7 | 27.4 | 0.00 | 0.00 | 0.00 | 89 | 1007.6 |
| 20260506114704 | 14 | 220 | 9.7 | 20.9 | 0.00 | 0.00 | 0.00 | 89 | 1007.7 |
| 20260506114204 | 14 | 220 | 8.0 | 19.3 | 0.00 | 0.00 | 0.00 | 90 | 1007.6 |
| 20260506113704 | 14 | 220 | 9.7 | 20.9 | 0.00 | 0.00 | 0.00 | 90 | 1007.9 |
| 20260506113204 | 13 | 220 | 9.7 | 22.5 | 0.00 | 0.00 | 0.00 | 90 | 1007.8 |
| 20260506112704 | 13 | 220 | 11.3 | 22.5 | 0.00 | 0.00 | 0.00 | 91 | 1007.9 |
| 20260506112203 | 13 | 220 | 14.5 | 25.7 | 0.00 | 0.00 | 0.00 | 90 | 1007.7 |
| 20260506111204 | 13 | 220 | 9.7 | 20.9 | 0.00 | 0.00 | 0.00 | 90 | 1008.1 |
| 20260506110704 | 13 | 220 | 11.3 | 24.1 | 0.00 | 0.00 | 0.00 | 91 | 1008.1 |
| 20260506110204 | 13 | 220 | 9.7 | 24.1 | 0.00 | 0.00 | 0.00 | 91 | 1008.0 |
| 20260506105704 | 12 | 210 | 9.7 | 24.1 | 0.00 | 0.00 | 0.00 | 91 | 1007.8 |
| 20260506105203 | 12 | 210 | 8.0 | 22.5 | 0.00 | 0.00 | 0.00 | 91 | 1007.9 |
| 20260506104704 | 12 | 210 | 11.3 | 29.0 | 0.00 | 0.00 | 0.00 | 91 | 1007.8 |
| 20260506104204 | 12 | 210 | 9.7 | 22.5 | 0.00 | 0.00 | 0.00 | 92 | 1007.7 |
| 20260506103204 | 12 | 210 | 8.0 | 22.5 | 0.00 | 0.00 | 0.00 | 92 | 1007.8 |
| 20260506102204 | 12 | 210 | 8.0 | 14.5 | 0.00 | 0.00 | 0.00 | 91 | 1007.7 |
| 20260506101704 | 12 | 210 | 11.3 | 25.7 | 0.00 | 0.00 | 0.00 | 91 | 1007.7 |
| 20260506100704 | 12 | 210 | 9.7 | 32.2 | 0.00 | 0.00 | 0.00 | 91 | 1007.8 |
| 20260506100204 | 12 | 210 | 9.7 | 25.7 | 0.00 | 0.00 | 0.00 | 91 | 1007.7 |
| 20260506095704 | 13 | 210 | 8.0 | 24.1 | 0.00 | 0.00 | 0.00 | 91 | 1007.7 |
| 20260506094704 | 13 | 210 | 9.7 | 32.2 | 0.00 | 0.00 | 0.00 | 91 | 1007.6 |
| 20260506094203 | 13 | 210 | 9.7 | 24.1 | 0.00 | 0.00 | 0.00 | 91 | 1007.5 |
| 20260506093703 | 13 | 210 | 8.0 | 22.5 | 0.00 | 0.00 | 0.00 | 91 | 1007.6 |
| 20260506093204 | 13 | 210 | 9.7 | 27.4 | 0.00 | 0.00 | 0.00 | 90 | 1007.6 |
| 20260506092704 | 13 | 210 | 8.0 | 24.1 | 0.00 | 0.00 | 0.00 | 90 | 1007.6 |
| 20260506092204 | 13 | 210 | 6.4 | 19.3 | 0.00 | 0.00 | 0.00 | 90 | 1007.5 |
| 20260506091704 | 13 | 210 | 9.7 | 25.7 | 0.00 | 0.00 | 0.00 | 90 | 1007.6 |
| 20260506091204 | 13 | 210 | 14.5 | 25.7 | 0.00 | 0.00 | 0.00 | 90 | 1007.5 |
| 20260506090204 | 13 | 210 | 9.7 | 19.3 | 0.00 | 0.00 | 0.00 | 90 | 1007.6 |
| 20260506085703 | 13 | 210 | 9.7 | 20.9 | 0.00 | 0.00 | 0.00 | 90 | 1007.5 |
| 20260506085204 | 13 | 210 | 6.4 | 25.7 | 0.00 | 0.00 | 0.00 | 89 | 1007.7 |
| 20260506084704 | 13 | 210 | 11.3 | 24.1 | 0.00 | 0.00 | 0.00 | 89 | 1007.7 |
| 20260506084204 | 13 | 210 | 12.9 | 29.0 | 0.00 | 0.00 | 0.00 | 89 | 1007.6 |
| 20260506083704 | 13 | 210 | 9.7 | 24.1 | 0.00 | 0.00 | 0.00 | 88 | 1007.8 |
| 20260506083203 | 13 | 210 | 6.4 | 20.9 | 0.00 | 0.00 | 0.00 | 88 | 1007.8 |
| 20260506082704 | 13 | 210 | 8.0 | 25.7 | 0.00 | 0.00 | 0.00 | 88 | 1007.8 |
| 20260506082203 | 13 | 210 | 9.7 | 19.3 | 0.00 | 0.00 | 0.00 | 88 | 1007.9 |
| 20260506081203 | 13 | 210 | 11.3 | 20.9 | 0.00 | 0.00 | 0.00 | 87 | 1007.7 |
| 20260506080703 | 13 | 210 | 11.3 | 27.4 | 0.00 | 0.00 | 0.00 | 87 | 1007.7 |
| 20260506080204 | 13 | 210 | 9.7 | 24.1 | 0.00 | 0.00 | 0.00 | 87 | 1007.7 |
| 20260506073203 | 14 | 210 | 11.3 | 22.5 | 0.00 | 0.00 | 0.00 | 85 | 1007.7 |
| 20260506072703 | 14 | 210 | 16.1 | 24.1 | 0.00 | 0.00 | 0.00 | 85 | 1007.7 |
| 20260506072204 | 14 | 210 | 16.1 | 32.2 | 0.00 | 0.00 | 0.00 | 85 | 1007.7 |
| 20260506071704 | 14 | 210 | 9.7 | 20.9 | 0.00 | 0.00 | 0.00 | 85 | 1007.7 |
| 20260506071204 | 14 | 210 | 9.7 | 22.5 | 0.00 | 0.00 | 0.00 | 85 | 1007.6 |
| 20260506070704 | 14 | 210 | 11.3 | 33.8 | 0.00 | 0.00 | 0.00 | 84 | 1007.6 |
| 20260506070203 | 14 | 210 | 9.7 | 22.5 | 0.00 | 0.00 | 0.00 | 84 | 1007.5 |
| 20260506061704 | 15 | 210 | 11.3 | 24.1 | 0.00 | 0.00 | 0.00 | 81 | 1007.5 |
| 20260506060704 | 15 | 210 | 9.7 | 27.4 | 0.00 | 0.00 | 0.00 | 81 | 1007.5 |
| 20260506060203 | 15 | 210 | 11.3 | 27.4 | 0.00 | 0.00 | 0.00 | 81 | 1007.5 |
| 20260506051204 | 16 | 210 | 16.1 | 27.4 | 0.00 | 0.00 | 0.00 | 77 | 1007.8 |
| 20260506050703 | 15 | 210 | 16.1 | 32.2 | 0.00 | 0.00 | 0.00 | 77 | 1007.8 |
| 20260506050204 | 15 | 210 | 9.7 | 25.7 | 0.00 | 0.00 | 0.00 | 77 | 1007.8 |
| 20260506044703 | 15 | 210 | 11.3 | 25.7 | 0.00 | 0.00 | 0.00 | 76 | 1008.1 |
| 20260506044204 | 15 | 210 | 11.3 | 24.1 | 0.00 | 0.00 | 0.00 | 76 | 1008.0 |
| 20260506043704 | 16 | 210 | 8.0 | 25.7 | 0.00 | 0.00 | 0.00 | 76 | 1008.0 |
| 20260506043204 | 16 | 210 | 12.9 | 33.8 | 0.00 | 0.00 | 0.00 | 75 | 1008.1 |
| 20260506042704 | 15 | 210 | 14.5 | 32.2 | 0.00 | 0.00 | 0.00 | 76 | 1008.1 |
| 20260506042204 | 15 | 210 | 17.7 | 32.2 | 0.00 | 0.00 | 0.00 | 76 | 1008.1 |
| 20260506041203 | 15 | 210 | 14.5 | 22.5 | 0.00 | 0.00 | 0.00 | 76 | 1008.0 |
| 20260506040204 | 15 | 210 | 11.3 | 20.9 | 0.00 | 0.00 | 0.00 | 76 | 1008.1 |
| 20260506035704 | 15 | 210 | 9.7 | 25.7 | 0.00 | 0.00 | 0.00 | 76 | 1008.1 |
| 20260506035204 | 15 | 210 | 9.7 | 20.9 | 0.00 | 0.00 | 0.00 | 76 | 1008.1 |
| 20260506034204 | 15 | 210 | 11.3 | 25.7 | 0.00 | 0.00 | 0.00 | 76 | 1008.1 |
| 20260506033704 | 15 | 210 | 12.9 | 24.1 | 0.00 | 0.00 | 0.00 | 76 | 1008.0 |
| 20260506033203 | 15 | 210 | 12.9 | 32.2 | 0.00 | 0.00 | 0.00 | 76 | 1008.0 |
| 20260506032204 | 15 | 210 | 9.7 | 29.0 | 0.00 | 0.00 | 0.00 | 76 | 1008.0 |
| 20260506031704 | 15 | 210 | 14.5 | 32.2 | 0.00 | 0.00 | 0.00 | 76 | 1007.8 |
| 20260506031204 | 15 | 210 | 11.3 | 32.2 | 0.00 | 0.00 | 0.00 | 76 | 1007.8 |
| 20260506030704 | 15 | 210 | 14.5 | 25.7 | 0.00 | 0.00 | 0.00 | 76 | 1007.9 |
| 20260506030204 | 15 | 210 | 9.7 | 25.7 | 0.00 | 0.00 | 0.00 | 76 | 1007.9 |
| 20260506025204 | 15 | 220 | 11.3 | 20.9 | 0.00 | 0.00 | 0.00 | 76 | 1007.9 |
| 20260506024704 | 15 | 220 | 11.3 | 29.0 | 0.00 | 0.00 | 0.00 | 76 | 1007.9 |
| 20260506024204 | 15 | 220 | 16.1 | 25.7 | 0.00 | 0.00 | 0.00 | 75 | 1008.0 |
| 20260506023704 | 15 | 220 | 14.5 | 24.1 | 0.00 | 0.00 | 0.00 | 75 | 1007.9 |
| 20260506023203 | 15 | 220 | 9.7 | 22.5 | 0.00 | 0.00 | 0.00 | 75 | 1007.9 |
| 20260506022704 | 15 | 220 | 12.9 | 35.4 | 0.00 | 0.00 | 0.00 | 74 | 1007.9 |
| 20260506022203 | 15 | 220 | 12.9 | 27.4 | 0.00 | 0.00 | 0.00 | 74 | 1008.0 |
| 20260506021204 | 15 | 220 | 14.5 | 29.0 | 0.00 | 0.00 | 0.00 | 73 | 1007.9 |
| 20260506020704 | 16 | 220 | 14.5 | 32.2 | 0.00 | 0.00 | 0.00 | 73 | 1007.9 |
| 20260506020204 | 16 | 220 | 11.3 | 32.2 | 0.00 | 0.00 | 0.00 | 72 | 1007.9 |
| 20260506015704 | 16 | 210 | 11.3 | 27.4 | 0.00 | 0.00 | 0.00 | 72 | 1007.9 |
| 20260506015205 | 16 | 210 | 11.3 | 29.0 | 0.00 | 0.00 | 0.00 | 72 | 1007.8 |
| 20260506014704 | 16 | 210 | 11.3 | 25.7 | 0.00 | 0.00 | 0.00 | 71 | 1007.7 |
| 20260506014203 | 16 | 210 | 14.5 | 32.2 | 0.00 | 0.00 | 0.00 | 71 | 1007.7 |
| 20260506013703 | 16 | 210 | 14.5 | 32.2 | 0.00 | 0.00 | 0.00 | 71 | 1007.7 |
| 20260506012704 | 16 | 210 | 11.3 | 32.2 | 0.00 | 0.00 | 0.00 | 70 | 1007.5 |
| 20260506012204 | 16 | 210 | 12.9 | 24.1 | 0.00 | 0.00 | 0.00 | 70 | 1007.4 |
| 20260506011703 | 16 | 210 | 12.9 | 24.1 | 0.00 | 0.00 | 0.00 | 70 | 1007.4 |